Location: Deurze
(52.9838°N, 6.6090°E)
Time: 19:23:58
(UTC+00:00)

Cosmos 2084 - Pass Details

Date: 11 March 2026
Orbit: 542 x 556 km, 62.8° (Epoch: 20 April)

Event Time Altitude Azimuth Distance (km) Brightness Sun altitude
Rises 19:10:20 0° 311° (NW) 2,736 8.1 -15.7°
Reaches altitude 10° 19:12:33 10° 312° (NW) 1,836 7.0 -16.0°
Maximum altitude 19:16:42 88° 37° (NE) 556 3.2 -16.6°
Enters shadow 19:18:28 33° 131° (SE) 932 4.0 -16.9°
